Home   Weather   40°01'N, 75°13'W   Past weeks
Flag for USA

Past Weather in 40°01'N, 75°13'W, USA — Yesterday and Last 2 Weeks

Now
55 °F

Light rain. Partly sunny.


Feels Like: 52 °F
Forecast: 67 / 53 °F
Wind: 10 mph from Northeast

Location: Philadelphia International Airport

Current Time: Apr 25, 2019 at 7:58:14 am

Latest Report: Apr 25, 2019 at 6:54 am


Visibility: 10 mi

Pressure: 29.95 "Hg

Humidity: 64%

Dew Point: 43 °F

Location of 40°01'N, 75°13'WLocation

Past Weather in 40°01'N, 75°13'W — Graph

°F

40°01'N, 75°13'W Temperature Yesterday

Maximum temperature yesterday: 73 °F (at 5:54 pm)
Minimum temperature yesterday: 61 °F (at 5:54 am)
Average temperature yesterday: 67 °F

High & Low Weather Summary for the Past Weeks

 TemperatureHumidityPressure
High81 °F (Apr 18, 4:54 pm)100% (Apr 14, 4:58 am)30.27 "Hg (Apr 14, 4:58 am)
Low43 °F (Apr 11, 4:54 am)20% (Apr 16, 1:54 pm)29.35 "Hg (Apr 15, 2:54 am)
Average62 °F63%29.93 "Hg
* Reported Apr 10 6:54 am — Apr 25 6:54 am, 40°01'N, 75°13'W. Weather by CustomWeather, © 2019

Note: Actual official high and low records may vary slightly from our data, if they occured in-between our weather recording intervals... More about our weather records

Advertising

40°01'N, 75°13'W Weather History for the Previous 24 Hours

Scroll right to see more
 ConditionsComfort  
Time TempWeatherWind HumidityBarometerVisibility
6:54 am
Thu, Apr 25
55 °FLight rain. Partly sunny.10 mph64%29.95 "Hg10 mi
5:54 am57 °FPartly cloudy.13 mph58%29.93 "Hg10 mi
4:54 am58 °FMostly cloudy.9 mph54%29.91 "Hg10 mi
3:54 am59 °FOvercast.9 mph49%29.87 "Hg10 mi
2:54 am61 °FMostly cloudy.7 mph41%29.88 "Hg10 mi
1:54 am60 °FMostly cloudy.5 mph47%29.89 "Hg10 mi
12:54 am64 °FMostly cloudy.7 mph37%29.90 "Hg10 mi
11:54 pm
Wed, Apr 24
62 °FPassing clouds.6 mph43%29.89 "Hg10 mi
10:54 pm63 °FPassing clouds.8 mph45%29.88 "Hg10 mi
9:54 pm67 °FPassing clouds.6 mph32%29.87 "Hg10 mi
8:54 pm68 °FPassing clouds.7 mph30%29.85 "Hg10 mi
7:54 pm70 °FPassing clouds.10 mph28%29.84 "Hg10 mi
6:54 pm71 °FPartly sunny.13 mph27%29.83 "Hg10 mi
5:54 pm73 °FScattered clouds.14 mph26%29.81 "Hg10 mi
4:54 pm72 °FScattered clouds.15 mph29%29.80 "Hg10 mi
3:54 pm72 °FPassing clouds.9 mph29%29.80 "Hg10 mi
2:54 pm71 °FPassing clouds.9 mph31%29.80 "Hg10 mi
1:54 pm70 °FPassing clouds.8 mph31%29.81 "Hg10 mi
12:54 pm68 °FPassing clouds.12 mph32%29.82 "Hg10 mi
11:54 am67 °FPassing clouds.10 mph37%29.82 "Hg10 mi
10:54 am65 °FPassing clouds.14 mph40%29.82 "Hg10 mi
9:54 am64 °FPassing clouds.15 mph43%29.81 "Hg10 mi
8:54 am63 °FScattered clouds.20 mph45%29.81 "Hg10 mi
7:54 am64 °FScattered clouds.17 mph49%29.80 "Hg10 mi
Weather by CustomWeather, © 2019

See weather overview